Location: McDonald Observatory
(30.6717°N, 104.0221°W)
Time: 13:04:30
(UTC-05:00)

Daily predictions for brighter satellites

Satellite Brightness Start Highest point End
(mag) Time Altitude Azimuth Time Altitude Azimuth Time Altitude Azimuth
METEOR-M 4.2 21:09:34 10° SSE 21:14:55 87° ENE 21:20:18 10° NNW
Cosmos 1603 4.4 21:10:43 10° SSE 21:15:40 33° ESE 21:20:37 10° NE
deb Centaur AC-2 4.3 21:11:42 10° WSW 21:16:18 69° SSE 21:21:46 10° E
Meteor 1-23 Rocket 4.5 21:13:17 10° SSE 21:18:40 50° E 21:24:09 10° NNE
OTV 4 2.8 21:16:47 10° WSW 21:18:44 16° SW 21:20:41 10° S
Cosmos 2058 Rocket 3.9 21:17:59 10° NNE 21:21:52 31° E 21:25:43 10° SE
Cosmos 2233 Rocket 4.0 21:19:55 10° N 21:26:10 87° E 21:32:20 10° S
FENGYUN 3A 3.9 21:22:53 10° SSE 21:28:04 52° ENE 21:33:17 10° N
Aureole 2 Rocket 2.6 21:25:22 10° S 21:29:24 75° ESE 21:33:06 10° NNE
COSMOS 2455 3.4 21:24:40 10° S 21:30:03 36° ESE 21:35:28 10° NE
Cosmos 1331 Rocket 4.2 21:26:05 10° N 21:31:10 54° ENE 21:36:11 10° SSE
FengYun 1-2 T 4.4 21:27:00 10° S 21:32:29 76° WSW 21:37:59 10° NNW
Cosmos 2285 Rocket 4.4 21:26:26 10° N 21:32:31 48° ENE 21:38:37 10° SE
Meteor 2-4 Rocket 3.8 21:27:02 10° S 21:32:49 71° E 21:38:42 10° NNE
BREEZE-M R/B 4.4 21:30:21 10° WNW 21:33:14 28° SW 21:38:01 10° SSE
Cosmos 2297 3.8 21:31:54 10° NNW 21:37:37 72° ENE 21:43:19 10° SSE
Cosmos 1943 4.5 21:34:22 10° SE 21:38:16 19° E 21:42:10 10° NE
Cosmos 1464 Rocket 4.3 21:33:25 10° N 21:39:18 47° E 21:45:14 10° SSE
Cosmos 1606 Rocket 3.6 21:35:24 10° N 21:39:50 89° E 21:44:12 10° S
H-2A R/B 2.8 21:36:45 10° SSE 21:40:39 66° ENE 21:44:34 10° N
deb Chang Zheng 4 3.9 21:36:49 10° NNE 21:41:01 45° E 21:45:10 10° S
Delta 168 3.3 21:38:15 10° WSW 21:41:12 34° S 21:44:00 15° ESE
H-2A R/B 3.1 21:39:26 13° SE 21:42:32 28° ENE 21:46:13 10° NNE
ATLAS 3B R/B 3.6 21:41:16 10° SSE 21:47:49 31° ESE 21:54:19 10° NE
Cosmos 1626 Rocket 3.9 21:45:50 10° SSE 21:50:02 43° E 21:54:14 10° NNE
Abrixas rocket 3.3 21:48:48 10° NNW 21:52:00 37° NE 21:54:07 18° E
ISS -2.1 21:50:52 10° WSW 21:54:00 46° NW 21:57:10 10° NNE
Okean 2 3.8 21:51:54 10° SSW 21:56:03 66° W 22:00:12 10° N
BREEZE-M DEB (TANK) 4.3 21:51:33 10° NW 21:56:14 77° SW 22:11:45 15° SE
Cosmos 2228 3.2 21:54:48 10° N 21:59:09 57° E 22:02:25 17° SSE
Cosmos 2034 Rocket 4.2 21:53:09 10° N 21:59:20 52° E 22:04:24 15° SSE
ERS-1 Rocket 3.0 21:57:06 14° SSE 22:01:19 63° ENE 22:06:17 10° N
Lacrosse 4 Rocket 2.8 22:06:25 18° E 22:06:25 18° E 22:08:30 10° ENE
ALOS 2.9 22:01:33 10° S 22:06:06 55° W 22:10:41 10° NNW
CZ-2C R/B 0.2 22:05:42 41° S 22:06:21 89° WSW 22:08:39 10° NNW
Star 37D S/N 012 4.1 22:04:27 10° W 22:07:19 68° S 22:07:48 46° ESE
Envisat 3.6 22:08:34 23° SE 22:11:10 39° ENE 22:15:51 10° N
APEX 3.9 22:09:24 10° NNW 22:13:58 84° ENE 22:17:52 21° SSE
Cosmos 2278 Rocket 4.3 22:10:33 10° NW 22:14:55 23° W 22:19:16 10° SSW
SPOT 5 3.5 22:13:37 26° ESE 22:15:05 32° ENE 22:18:57 10° N
CZ-4 SHROUD 4.3 22:16:41 29° ENE 22:16:46 29° ENE 22:19:32 10° NNE
Fermi 4.3 22:13:27 10° WSW 22:17:18 40° S 22:18:20 33° SSE
Timation 1 Rocket 4.4 22:12:04 10° NNW 22:18:03 68° ENE 22:21:33 26° SE
Nimbus 7 Rocket 4.3 22:15:48 10° NNE 22:21:46 86° ESE 22:27:38 10° SSW
Cosmos 1666 3.0 22:20:22 10° NNW 22:24:14 65° W 22:26:38 22° S
Cosmos 1238 4.2 22:25:19 55° ESE 22:25:33 56° E 22:28:32 10° NNE
Cosmos 2369 Rocket 3.6 22:22:50 10° NNE 22:27:05 21° ENE 22:28:41 19° E
USA 186 4.4 22:28:36 10° SW 22:30:07 13° W 22:31:35 10° WNW
Cosmos 1461 2.7 22:28:35 10° NNW 22:32:47 88° ENE 22:33:52 48° SSE
PSLV R/B 3.6 22:34:24 48° NE 22:34:24 48° NE 22:37:06 10° N
Mugunghwa Rocket 4.4 22:39:33 10° SW 22:45:22 39° SSE 22:46:07 38° SE
Atlas Centaur 2 2.9 22:38:48 10° W 22:46:12 88° S 22:52:19 21° E
USA 81 4.3 22:42:17 10° N 22:47:21 46° E 22:48:04 43° ESE
Cosmos 1515 3.7 22:48:44 54° SSW 22:49:31 76° W 22:53:22 10° N
YAOGAN 6 3.6 22:51:40 37° NE 22:51:40 37° NE 22:54:32 10° N
Cosmos 1900 4.3 22:50:07 37° S 22:52:07 68° ESE 22:57:13 10° NNE
OAO 3 Copernicus 4.3 22:47:10 10° WNW 22:52:11 68° SSW 22:52:59 57° SSE
Cosmos 1992 Rocket 4.2 22:47:11 10° N 22:52:16 51° ENE 22:53:01 47° E
Cosmos 1939 Rocket 3.7 22:51:36 33° SSW 22:53:03 48° W 22:57:05 10° NNW
Cosmos 1825 Rocket 3.5 22:59:19 66° S 22:59:56 88° W 23:04:23 10° N
Cosmos 1066 Rocket 4.1 22:58:03 39° S 23:00:17 85° E 23:06:05 10° N
SeaSat 1 2.4 23:01:19 61° ESE 23:02:00 72° ENE 23:06:55 10° NNW
Milstar 3 Cent rocket 3.4 22:58:53 10° W 23:04:28 26° SSW 23:04:50 26° SSW
H-2A R/B 3.5 23:07:09 21° ENE 23:07:09 21° ENE 23:10:25 10° NNE
Meteor 1-22 Rocket 4.5 23:01:15 10° N 23:06:44 50° E 23:07:09 49° E
deb Centaur AC-2 4.5 23:02:09 10° W 23:07:21 84° S 23:08:38 57° ESE
Cosmos 1190 Rocket 4.2 23:05:44 28° SSW 23:08:35 71° WNW 23:13:54 10° N
Geosat 4.2 23:04:43 10° NNE 23:08:59 53° ENE 23:08:59 53° ENE
SPOT 1/Viking Rocket 3.3 23:14:58 75° SE 23:15:19 80° ENE 23:20:28 10° N
Cosmos 1346 Rocket 3.5 23:17:11 51° NNW 23:17:11 51° NNW 23:20:15 10° N
MetOp-A 4.3 23:16:00 53° SSW 23:17:05 68° WSW 23:22:26 10° NNW
H-2A R/B 4.4 23:16:35 13° SW 23:18:31 17° W 23:21:24 10° NW
CZ-4B R/B 4.2 23:13:43 10° N 23:18:42 52° WNW 23:21:21 27° SW
Cosmos 1943 4.3 23:16:32 10° SW 23:21:53 43° WNW 23:27:17 10° N
Cosmos 676 Rocket 3.9 23:25:07 79° SW 23:25:26 86° WNW 23:30:47 10° NNE
Cosmos 1943 Rocket 3.5 23:23:22 10° N 23:27:40 26° ENE 23:27:40 26° ENE
USA 245 4.4 23:28:32 62° SSW 23:29:25 73° WSW 23:34:50 10° NNW
SL-08 RB Rocket 4.2 23:31:29 55° N 23:31:29 55° N 23:35:06 10° N
ATLAS 3B R/B 3.8 23:30:56 10° SW 23:38:18 47° WNW 23:45:35 10° NNE
Meteor 1-21 4.3 23:38:03 71° SW 23:38:32 76° W 23:44:21 10° N
Cosmos 1634 Rocket 4.4 23:38:00 10° NNW 23:44:00 56° W 23:45:07 49° SW
Lacrosse 4 Rocket 3.6 23:42:36 19° W 23:44:04 23° WNW 23:47:20 10° N
USA 234 3.2 23:51:11 65° E 23:51:49 68° NE 23:58:20 10° NW
